This is the latest recevied weather packets stored in our database for station/object K3TLB-13. If no packets are shown the sender has not sent any weather packets the latest 10 day(s).
| Time | Temp. | Humidity | Pressure | Rain* | Wind** | Luminosity | Snow |
|---|---|---|---|---|---|---|---|
| 1778157313 | 11.11° C | 52% | 1013.3 hPa | 0 mm | - | - | - |
| 1778157236 | 11.11° C | 52% | 1013.3 hPa | 0 mm | - | - | - |
| 1778156936 | 11.11° C | 54% | 1013.3 hPa | 0 mm | - | - | - |
| 1778156638 | 11.11° C | 57% | 1013.3 hPa | 0 mm | - | - | - |
| 1778156336 | 11.11° C | 55% | 1013.2 hPa | 0 mm | - | - | - |
| 1778156037 | 10.56° C | 56% | 1013.3 hPa | 0 mm | - | - | - |
| 1778155736 | 10.56° C | 53% | 1013.3 hPa | 0 mm | - | - | - |
| 1778155436 | 10.56° C | 56% | 1013.3 hPa | 0 mm | - | - | - |
| 1778155136 | 10.56° C | 55% | 1013.3 hPa | 0 mm | - | - | - |
| 1778154836 | 10.56° C | 57% | 1013.3 hPa | 0 mm | - | - | - |
| 1778154536 | 10.56° C | 56% | 1013.4 hPa | 0 mm | - | - | - |
| 1778154236 | 10.56° C | 56% | 1013.4 hPa | 0 mm | - | - | - |
| 1778153937 | 10.56° C | 57% | 1013.4 hPa | 0 mm | - | - | - |
| 1778153636 | 10.56° C | 58% | 1013.4 hPa | 0 mm | - | - | - |
| 1778153336 | 10.56° C | 59% | 1013.3 hPa | 0 mm | - | - | - |
| 1778153037 | 10.56° C | 63% | 1013.3 hPa | 0 mm | - | - | - |
| 1778152738 | 10.56° C | 61% | 1013.2 hPa | 0 mm | - | - | - |
| 1778152436 | 10.56° C | 62% | 1013.1 hPa | 0 mm | - | - | - |
| 1778152136 | 10.56° C | 63% | 1013 hPa | 0 mm | - | - | - |
| 1778151836 | 10° C | 61% | 1012.8 hPa | 0 mm | - | - | - |
| 1778151536 | 10° C | 61% | 1012.8 hPa | 0 mm | - | - | - |
| 1778151236 | 10° C | 62% | 1012.9 hPa | 0 mm | - | - | - |
| 1778150936 | 10° C | 60% | 1012.8 hPa | 0 mm | - | - | - |
| 1778150636 | 10° C | 59% | 1012.7 hPa | 0 mm | - | - | - |
| 1778150337 | 10.56° C | 61% | 1012.8 hPa | 0 mm | - | - | - |
* Rain latest hour (hover to see other rain measurements)
** Current wind speed in m/s (hover to see current wind gust speed)